DELTA 1 DEB, 8539

Orbit data source: Space-Track

DELTA 1 DEB, 8539 is space debris in SSO originally from a launch on Sun, 23 Jul 1972 UTC launched from the Air Force Western Test Range (AFWTR). Debris objects in space refer to the collection of defunct objects orbiting the Earth. Examples of debris include non-operational satellites, rocket bodies, and fragments generated from explosions, collisions, or faulty payload assembly.

Loading next visibility...
Identifier
8539, 1972-058GN
Orbit
SSO
Country
Flag of USUS
Related business
Manufacturer
Unknown
Mission
Spacecraft
Bus & Motor
Unknown
Mass
Unknown
Launch date (UTC)
1972-07-23 (53 years ago)
Launch vehicle
Unknown
Launch site
Air Force Western Test Range (AFWTR)
Object type
Payload
Rocket body
Debris
Shape & HBR
Unknown shape, 0.1 m
Radar Cross Section
Small (<0.1 m²)

Expand to show TLE details & history
Last TLE update: 16 hours ago

TLE from 16 hours ago
0 DELTA 1 DEB
1 08539U 72058GN  25293.89573107  .00001353  00000-0  51897-3 0  9993
2 08539  97.2893 348.5445 0198513 299.9450  58.2150 14.21591056720580
Epoch: 2025-10-20T21:29Z
TLE epoch observation values (Epoch: 2025-10-20T21:29:51.164Z)
Latitude
-0.00007°
Longitude
-3.51015°
Altitude
749.739 km
Speed
7.518 km/s
True Right ascension
23h 14m 10s
True Declination
0° 00' 00"
Sunlit
Object was in full shadow at epoch
Visualization orbit readout
Latitude
Unknown
Longitude
Unknown
Altitude
Unknown
Speed
Unknown
Apparent Right ascension
Unknown
Apparent Declination
Unknown
Sunlit
N/A
Visualization observer readout
Local Sidereal Time
08:04:46
Azimuth
Unknown
Elevation
Unknown
Doppler factor
Unknown
Orbital elements
Apogee altitude
959.903 km
Perigee altitude
674.235 km
Semi-major axis
7,195.206 km
Eccentricity
0.01985
Inclination
97.2893°
RAAN
348.5445°
Arg. of periapsis
299.945°
True anomaly
60.17385°
Mean anomaly
58.215°
Eccentric anomaly
59.19189°
Mean motion
3.55614 °/min
Orbital period
101.23 mins
BSTAR
0.00051897
Loading maneuver chart data...
Computing Atmospheric mass density...

Documentation

Showing up to 5 results
|